Location: Unspecified
(41.5000°N, 0.0000°E)
Time: 10:44:28
(UTC+00:00)

deb Explorer IX - Pass Details

Date: 20 June 2019
Orbit: 539 x 1111 km, 38.8° (Epoch: 16 August)

Event Time Altitude Azimuth Distance (km) Brightness Sun altitude
Rises 13:58:44 0° 228° (SW) 3,828 ? 59.6°
Reaches altitude 10° 14:01:34 10° 222° (SW) 2,920 ? 59.2°
Maximum altitude 14:08:17 41° 154° (SSE) 1,546 ? 58.0°
Drops below altitude 10° 14:15:02 10° 87° (E) 2,939 ? 56.9°
Sets 14:17:53 0° 81° (E) 3,856 ? 56.4°
